Torna al catalogo

BELINTERSAT 1

AttivoComunicazioniGEO
NORAD 41238·PAYLOAD·🇧🇾 Belarus

Lanciato Jan 15, 2016 da Xichang Satellite Launch Center

Loading…

TLE

AggiornatoSource: Space-Track

Epoca: Sep 14, 2026, 14:02 UTC

1 41238U 16001A   26257.58532772  .00000099  00000-0  00000-0 0  9995
2 41238   0.0249  83.4511 0000681  19.2798 153.0749  1.00273352 39136

Traccia BELINTERSAT 1 in tempo reale con AllMySat

Download on the App Store